SIC0218 LIMJ-LIRQ

Flight info

Callsign SIC0218
Flight time 1h 7m
Altitude 7500
Route NERVI 1NMSWPORTOFINO SESTRILEVANTE BRUGNATO MONZONE VIAREGGIO QUIESA MONTECARLO GALCIANA CASELLOA11
Aircraft C172/L-SFGRY/S

Departure

Time 2026-04-25 13:11
Airport Genoa Cristoforo Colombo Airport (LIMJ)

Arrival

Time 2026-04-25 14:18
Airport Florence Airport, Peretola (LIRQ)
Time Latitude Longitude Altitude Speed Heading
2026-04-25 12:57 44.41796 8.85305 13 ft 0 kts 322°
2026-04-25 13:04 44.41798 8.85304 13 ft 0 kts 316°
2026-04-25 13:04 44.41798 8.85303 13 ft 1 kts 316°
2026-04-25 13:04 44.41806 8.85263 13 ft 6 kts 263°
2026-04-25 13:05 44.41788 8.85222 13 ft 4 kts 224°
2026-04-25 13:05 44.41771 8.85197 13 ft 3 kts 236°
2026-04-25 13:05 44.41748 8.85155 13 ft 8 kts 231°
2026-04-25 13:05 44.41695 8.85073 13 ft 14 kts 221°
2026-04-25 13:06 44.41627 8.84961 13 ft 16 kts 229°
2026-04-25 13:06 44.41546 8.84832 13 ft 21 kts 233°
2026-04-25 13:06 44.41448 8.84650 13 ft 26 kts 234°
2026-04-25 13:06 44.41329 8.84434 13 ft 29 kts 232°
2026-04-25 13:07 44.41267 8.84323 14 ft 0 kts 231°
2026-04-25 13:07 44.41265 8.84320 14 ft 2 kts 231°
2026-04-25 13:08 44.41236 8.84265 16 ft 12 kts 237°
2026-04-25 13:08 44.41182 8.84236 18 ft 1 kts 104°
2026-04-25 13:08 44.41162 8.84353 16 ft 34 kts 103°
2026-04-25 13:08 44.41079 8.84839 48 ft 60 kts 101°
2026-04-25 13:09 44.41019 8.85419 151 ft 62 kts 107°
2026-04-25 13:09 44.40881 8.85958 282 ft 56 kts 142°
2026-04-25 13:09 44.40698 8.86421 428 ft 57 kts 117°
2026-04-25 13:09 44.40538 8.86916 504 ft 55 kts 114°
2026-04-25 13:10 44.40421 8.87340 520 ft 46 kts 112°
2026-04-25 13:10 44.40303 8.87753 413 ft 52 kts 110°
2026-04-25 13:10 44.40335 8.88328 315 ft 66 kts 101°
2026-04-25 13:10 44.40313 8.88903 446 ft 64 kts 99°
2026-04-25 13:11 44.40184 8.89536 513 ft 72 kts 110°
2026-04-25 13:11 44.40082 8.90165 691 ft 64 kts 105°
2026-04-25 13:11 44.40024 8.90771 734 ft 55 kts 121°
2026-04-25 13:11 44.39841 8.91245 696 ft 66 kts 119°
2026-04-25 13:12 44.39704 8.91848 859 ft 60 kts 120°
2026-04-25 13:12 44.39543 8.92456 970 ft 69 kts 135°
2026-04-25 13:12 44.39243 8.92964 1164 ft 71 kts 133°
2026-04-25 13:12 44.39007 8.93285 1295 ft 70 kts 134°
2026-04-25 13:13 44.38708 8.94200 1480 ft 80 kts 118°
2026-04-25 13:13 44.38493 8.94965 1554 ft 88 kts 114°
2026-04-25 13:13 44.38268 8.95814 1647 ft 96 kts 114°
2026-04-25 13:13 44.38034 8.96716 1738 ft 100 kts 115°
2026-04-25 13:14 44.37802 8.97641 1817 ft 100 kts 113°
2026-04-25 13:14 44.37577 8.98541 1892 ft 96 kts 116°
2026-04-25 13:14 44.37358 8.99432 1970 ft 97 kts 115°
2026-04-25 13:14 44.37275 9.00384 1983 ft 109 kts 73°
2026-04-25 13:15 44.37616 9.01326 1993 ft 109 kts 79°
2026-04-25 13:15 44.37894 9.02319 1997 ft 110 kts 76°
2026-04-25 13:15 44.37979 9.03298 1993 ft 98 kts 112°
2026-04-25 13:15 44.37762 9.04188 1996 ft 97 kts 113°
2026-04-25 13:16 44.37563 9.05096 1998 ft 98 kts 114°
2026-04-25 13:16 44.37367 9.06006 1990 ft 98 kts 117°
2026-04-25 13:16 44.36871 9.06544 1992 ft 92 kts 159°
2026-04-25 13:16 44.36500 9.06758 1997 ft 93 kts 156°
2026-04-25 13:17 44.35971 9.07050 1996 ft 93 kts 158°
2026-04-25 13:17 44.35371 9.07384 1995 ft 93 kts 158°
2026-04-25 13:17 44.34772 9.07738 1985 ft 96 kts 158°
2026-04-25 13:17 44.34365 9.08439 1982 ft 103 kts 99°
2026-04-25 13:18 44.34255 9.09395 1978 ft 98 kts 126°
2026-04-25 13:18 44.33882 9.10163 1979 ft 95 kts 127°
2026-04-25 13:18 44.33502 9.10908 1979 ft 93 kts 131°
2026-04-25 13:18 44.33113 9.11636 1979 ft 93 kts 132°
2026-04-25 13:19 44.32717 9.12361 1981 ft 94 kts 132°
2026-04-25 13:19 44.32312 9.13088 1986 ft 97 kts 131°
2026-04-25 13:19 44.31894 9.13842 1988 ft 99 kts 131°
2026-04-25 13:19 44.31614 9.14341 1987 ft 99 kts 130°
2026-04-25 13:20 44.31059 9.15328 1982 ft 97 kts 129°
2026-04-25 13:20 44.30642 9.16069 1981 ft 97 kts 130°
2026-04-25 13:20 44.30229 9.16803 1982 ft 95 kts 131°
2026-04-25 13:20 44.29826 9.17518 1975 ft 92 kts 130°
2026-04-25 13:21 44.29436 9.18211 1977 ft 89 kts 131°
2026-04-25 13:21 44.29071 9.18889 1973 ft 87 kts 124°
2026-04-25 13:21 44.28923 9.19729 1978 ft 91 kts 101°
2026-04-25 13:21 44.28832 9.20596 1981 ft 92 kts 104°
2026-04-25 13:22 44.28746 9.21489 1989 ft 94 kts 102°
2026-04-25 13:22 44.28655 9.22413 1986 ft 97 kts 103°
2026-04-25 13:22 44.28561 9.23352 1992 ft 99 kts 106°
2026-04-25 13:23 44.28371 9.25273 1990 ft 99 kts 104°
2026-04-25 13:23 44.28275 9.26227 1986 ft 100 kts 104°
2026-04-25 13:23 44.28181 9.27177 1978 ft 99 kts 103°
2026-04-25 13:23 44.28088 9.28101 1973 ft 94 kts 102°
2026-04-25 13:24 44.27999 9.28991 1981 ft 94 kts 103°
2026-04-25 13:24 44.27908 9.29906 1984 ft 96 kts 104°
2026-04-25 13:24 44.27814 9.30843 1983 ft 97 kts 101°
2026-04-25 13:24 44.27721 9.31779 1987 ft 98 kts 105°
2026-04-25 13:25 44.27658 9.32402 1989 ft 98 kts 105°
2026-04-25 13:25 44.27530 9.33667 1987 ft 99 kts 103°
2026-04-25 13:25 44.27434 9.34622 1989 ft 99 kts 103°
2026-04-25 13:25 44.27339 9.35574 1986 ft 100 kts 102°
2026-04-25 13:26 44.27242 9.36532 1995 ft 100 kts 104°
2026-04-25 13:26 44.27143 9.37517 1992 ft 105 kts 105°
2026-04-25 13:26 44.27041 9.38524 1989 ft 103 kts 104°
2026-04-25 13:26 44.26941 9.39512 1992 ft 105 kts 104°
2026-04-25 13:27 44.26833 9.40533 1984 ft 107 kts 104°
2026-04-25 13:27 44.26732 9.41530 1996 ft 100 kts 105°
2026-04-25 13:27 44.26628 9.42498 2124 ft 105 kts 101°
2026-04-25 13:27 44.26518 9.43533 2262 ft 112 kts 104°
2026-04-25 13:28 44.26404 9.44612 2380 ft 108 kts 103°
2026-04-25 13:28 44.26366 9.44954 2419 ft 103 kts 104°
2026-04-25 13:28 44.26205 9.46532 2607 ft 101 kts 102°
2026-04-25 13:28 44.26096 9.47513 2742 ft 105 kts 105°
2026-04-25 13:29 44.25991 9.48539 2860 ft 105 kts 102°
2026-04-25 13:29 44.25884 9.49523 2983 ft 101 kts 104°
2026-04-25 13:29 44.25782 9.50485 3124 ft 102 kts 106°
2026-04-25 13:30 44.25564 9.52520 3418 ft 107 kts 105°
2026-04-25 13:30 44.25458 9.53539 3547 ft 103 kts 103°
2026-04-25 13:30 44.25354 9.54514 3704 ft 102 kts 104°
2026-04-25 13:31 44.25140 9.56499 4011 ft 106 kts 104°
2026-04-25 13:31 44.25031 9.57522 4161 ft 107 kts 104°
2026-04-25 13:31 44.24923 9.58537 4308 ft 105 kts 105°
2026-04-25 13:31 44.24814 9.59545 4432 ft 108 kts 104°
2026-04-25 13:32 44.24702 9.60582 4560 ft 108 kts 103°
2026-04-25 13:32 44.24592 9.61622 4686 ft 109 kts 103°
2026-04-25 13:32 44.24478 9.62684 4813 ft 111 kts 102°
2026-04-25 13:32 44.24363 9.63753 4941 ft 112 kts 103°
2026-04-25 13:33 44.24246 9.64832 5066 ft 112 kts 101°
2026-04-25 13:33 44.24130 9.65913 5186 ft 114 kts 103°
2026-04-25 13:33 44.24014 9.67013 5312 ft 115 kts 103°
2026-04-25 13:33 44.23976 9.67369 5347 ft 114 kts 103°
2026-04-25 13:34 44.23784 9.69151 5547 ft 109 kts 101°
2026-04-25 13:34 44.23671 9.70172 5587 ft 107 kts 102°
2026-04-25 13:34 44.23558 9.71200 5596 ft 110 kts 103°
2026-04-25 13:34 44.23441 9.72277 5605 ft 116 kts 103°
2026-04-25 13:35 44.23244 9.73389 5608 ft 120 kts 108°
2026-04-25 13:35 44.23043 9.74510 5605 ft 118 kts 107°
2026-04-25 13:35 44.22845 9.75604 5647 ft 115 kts 108°
2026-04-25 13:35 44.22650 9.76666 5692 ft 111 kts 107°
2026-04-25 13:36 44.22459 9.77706 5742 ft 110 kts 107°
2026-04-25 13:36 44.22272 9.78725 5786 ft 109 kts 107°
2026-04-25 13:36 44.22083 9.79751 5837 ft 108 kts 108°
2026-04-25 13:36 44.21896 9.80774 5883 ft 108 kts 108°
2026-04-25 13:37 44.21706 9.81797 5938 ft 109 kts 108°
2026-04-25 13:37 44.21517 9.82814 5989 ft 109 kts 107°
2026-04-25 13:37 44.21331 9.83824 6037 ft 109 kts 107°
2026-04-25 13:37 44.21142 9.84851 6094 ft 109 kts 107°
2026-04-25 13:38 44.20948 9.85896 6137 ft 111 kts 109°
2026-04-25 13:38 44.20753 9.86944 6193 ft 111 kts 107°
2026-04-25 13:38 44.20560 9.87992 6242 ft 112 kts 108°
2026-04-25 13:38 44.20367 9.89035 6296 ft 111 kts 107°
2026-04-25 13:39 44.20175 9.90075 6342 ft 109 kts 108°
2026-04-25 13:39 44.19987 9.91091 6382 ft 106 kts 106°
2026-04-25 13:39 44.19807 9.92064 6431 ft 102 kts 107°
2026-04-25 13:39 44.19632 9.93015 6467 ft 101 kts 108°
2026-04-25 13:40 44.19516 9.93635 6505 ft 100 kts 108°
2026-04-25 13:40 44.19337 9.94593 6561 ft 104 kts 107°
2026-04-25 13:40 44.19152 9.95592 6615 ft 109 kts 107°
2026-04-25 13:40 44.18959 9.96620 6672 ft 110 kts 107°
2026-04-25 13:41 44.18706 9.97986 6729 ft 109 kts 107°
2026-04-25 13:41 44.18577 9.98676 6758 ft 108 kts 107°
2026-04-25 13:41 44.18387 9.99697 6810 ft 110 kts 108°
2026-04-25 13:41 44.18195 10.00725 6859 ft 111 kts 107°
2026-04-25 13:42 44.18002 10.01762 6907 ft 111 kts 108°
2026-04-25 13:42 44.17806 10.02812 6961 ft 112 kts 107°
2026-04-25 13:42 44.17608 10.03869 7010 ft 112 kts 107°
2026-04-25 13:42 44.17410 10.04927 7056 ft 113 kts 107°
2026-04-25 13:43 44.17211 10.05996 7106 ft 114 kts 106°
2026-04-25 13:43 44.17012 10.07056 7142 ft 113 kts 107°
2026-04-25 13:43 44.16813 10.08121 7190 ft 115 kts 107°
2026-04-25 13:43 44.16610 10.09207 7238 ft 116 kts 107°
2026-04-25 13:44 44.16407 10.10305 7273 ft 116 kts 106°
2026-04-25 13:44 44.16202 10.11387 7333 ft 114 kts 106°
2026-04-25 13:44 44.15978 10.12434 7374 ft 114 kts 121°
2026-04-25 13:44 44.15422 10.13142 7434 ft 107 kts 159°
2026-04-25 13:45 44.14714 10.13448 7481 ft 104 kts 171°
2026-04-25 13:45 44.14033 10.13729 7514 ft 103 kts 172°
2026-04-25 13:45 44.13340 10.13954 7515 ft 101 kts 190°
2026-04-25 13:45 44.12775 10.13558 7482 ft 90 kts 215°
2026-04-25 13:46 44.12217 10.13102 7481 ft 98 kts 218°
2026-04-25 13:46 44.11646 10.12583 7475 ft 102 kts 217°
2026-04-25 13:46 44.11020 10.12017 7446 ft 111 kts 218°
2026-04-25 13:46 44.10384 10.11475 7414 ft 104 kts 217°
2026-04-25 13:47 44.09749 10.10929 7370 ft 110 kts 217°
2026-04-25 13:47 44.08995 10.10589 7320 ft 117 kts 200°
2026-04-25 13:47 44.08213 10.10319 7275 ft 116 kts 201°
2026-04-25 13:47 44.07379 10.10287 7220 ft 125 kts 178°
2026-04-25 13:48 44.06533 10.10458 7170 ft 121 kts 179°
2026-04-25 13:48 44.05705 10.10639 7114 ft 122 kts 167°
2026-04-25 13:48 44.04973 10.11248 7056 ft 123 kts 144°
2026-04-25 13:48 44.04441 10.12204 7007 ft 128 kts 125°
2026-04-25 13:49 44.03963 10.13251 6965 ft 128 kts 126°
2026-04-25 13:49 44.03489 10.14294 6902 ft 128 kts 127°
2026-04-25 13:49 44.03029 10.15331 6796 ft 127 kts 126°
2026-04-25 13:49 44.02579 10.16359 6697 ft 122 kts 125°
2026-04-25 13:50 44.02130 10.17359 6593 ft 123 kts 124°
2026-04-25 13:50 44.01680 10.18347 6483 ft 120 kts 135°
2026-04-25 13:50 44.00985 10.18912 6375 ft 115 kts 167°
2026-04-25 13:50 44.00229 10.19258 6255 ft 114 kts 168°
2026-04-25 13:51 43.99473 10.19576 6122 ft 113 kts 169°
2026-04-25 13:51 43.98721 10.19882 5999 ft 113 kts 171°
2026-04-25 13:51 43.97973 10.20185 5864 ft 111 kts 169°
2026-04-25 13:51 43.97237 10.20480 5736 ft 110 kts 171°
2026-04-25 13:52 43.96494 10.20779 5620 ft 112 kts 169°
2026-04-25 13:52 43.95748 10.21083 5484 ft 113 kts 170°
2026-04-25 13:52 43.94993 10.21386 5363 ft 113 kts 172°
2026-04-25 13:52 43.94242 10.21691 5247 ft 112 kts 171°
2026-04-25 13:53 43.93492 10.21988 5118 ft 113 kts 172°
2026-04-25 13:53 43.92735 10.22292 4996 ft 114 kts 172°
2026-04-25 13:53 43.91975 10.22596 4876 ft 114 kts 171°
2026-04-25 13:53 43.91213 10.22900 4748 ft 114 kts 172°
2026-04-25 13:54 43.90451 10.23207 4618 ft 114 kts 172°
2026-04-25 13:54 43.89683 10.23513 4494 ft 115 kts 172°
2026-04-25 13:54 43.88912 10.23821 4366 ft 115 kts 173°
2026-04-25 13:54 43.88149 10.24121 4240 ft 114 kts 172°
2026-04-25 13:55 43.87400 10.24432 4113 ft 111 kts 171°
2026-04-25 13:55 43.86646 10.24740 3996 ft 116 kts 167°
2026-04-25 13:55 43.85989 10.25426 3846 ft 125 kts 122°
2026-04-25 13:55 43.85757 10.26584 3734 ft 126 kts 102°
2026-04-25 13:56 43.85585 10.27776 3606 ft 125 kts 102°
2026-04-25 13:56 43.85420 10.28963 3484 ft 125 kts 102°
2026-04-25 13:56 43.85254 10.30129 3354 ft 122 kts 103°
2026-04-25 13:56 43.85088 10.31296 3225 ft 125 kts 102°
2026-04-25 13:57 43.84923 10.32457 3103 ft 123 kts 103°
2026-04-25 13:57 43.84809 10.33245 3015 ft 125 kts 102°
2026-04-25 13:57 43.84594 10.34770 2856 ft 121 kts 103°
2026-04-25 13:57 43.84432 10.35916 2712 ft 124 kts 103°
2026-04-25 13:58 43.84260 10.37129 2501 ft 124 kts 104°
2026-04-25 13:58 43.84098 10.38252 2489 ft 116 kts 104°
2026-04-25 13:58 43.83994 10.39379 2498 ft 120 kts 88°
2026-04-25 13:58 43.84043 10.40515 2451 ft 108 kts 86°
2026-04-25 13:59 43.83997 10.41479 2497 ft 97 kts 111°
2026-04-25 13:59 43.84112 10.42433 2490 ft 105 kts 62°
2026-04-25 13:59 43.84403 10.43381 2503 ft 110 kts 64°
2026-04-25 13:59 43.84721 10.44434 2509 ft 126 kts 66°
2026-04-25 14:00 43.85065 10.45571 2516 ft 127 kts 65°
2026-04-25 14:00 43.85424 10.46721 2499 ft 131 kts 65°
2026-04-25 14:00 43.85781 10.47861 2501 ft 126 kts 64°
2026-04-25 14:00 43.86146 10.49001 2498 ft 131 kts 66°
2026-04-25 14:01 43.86507 10.50124 2488 ft 125 kts 65°
2026-04-25 14:01 43.86771 10.51265 2500 ft 124 kts 80°
2026-04-25 14:01 43.86915 10.52431 2492 ft 121 kts 80°
2026-04-25 14:01 43.87066 10.53569 2503 ft 123 kts 80°
2026-04-25 14:02 43.87223 10.54737 2496 ft 123 kts 79°
2026-04-25 14:02 43.87370 10.55906 2501 ft 124 kts 80°
2026-04-25 14:02 43.87515 10.57093 2494 ft 125 kts 80°
2026-04-25 14:02 43.87563 10.57493 2507 ft 123 kts 80°
2026-04-25 14:03 43.87788 10.59422 2493 ft 123 kts 94°
2026-04-25 14:03 43.87741 10.60610 2499 ft 125 kts 94°
2026-04-25 14:03 43.87733 10.61808 2507 ft 121 kts 90°
2026-04-25 14:03 43.87726 10.62987 2476 ft 123 kts 91°
2026-04-25 14:04 43.87732 10.64137 2449 ft 121 kts 93°
2026-04-25 14:04 43.87744 10.65237 2476 ft 113 kts 92°
2026-04-25 14:04 43.87754 10.66290 2507 ft 110 kts 92°
2026-04-25 14:04 43.87759 10.67394 2499 ft 118 kts 92°
2026-04-25 14:05 43.87767 10.68549 2494 ft 120 kts 90°
2026-04-25 14:05 43.87778 10.69703 2497 ft 120 kts 91°
2026-04-25 14:05 43.87787 10.70881 2502 ft 125 kts 92°
2026-04-25 14:05 43.87792 10.72080 2511 ft 125 kts 93°
2026-04-25 14:06 43.87802 10.73312 2494 ft 128 kts 92°
2026-04-25 14:06 43.87812 10.74547 2495 ft 128 kts 93°
2026-04-25 14:06 43.87821 10.75788 2495 ft 129 kts 92°
2026-04-25 14:06 43.87831 10.77047 2480 ft 132 kts 92°
2026-04-25 14:07 43.87840 10.78315 2481 ft 130 kts 94°
2026-04-25 14:07 43.87846 10.79575 2479 ft 131 kts 94°
2026-04-25 14:07 43.87853 10.80829 2479 ft 128 kts 92°
2026-04-25 14:07 43.87865 10.82061 2442 ft 131 kts 92°
2026-04-25 14:08 43.87873 10.83263 2465 ft 121 kts 93°
2026-04-25 14:08 43.87881 10.84399 2478 ft 118 kts 93°
2026-04-25 14:08 43.87891 10.85578 2462 ft 123 kts 91°
2026-04-25 14:08 43.87893 10.86689 2460 ft 104 kts 92°
2026-04-25 14:09 43.87906 10.87628 2445 ft 93 kts 92°
2026-04-25 14:09 43.87922 10.88554 2384 ft 98 kts 95°
2026-04-25 14:09 43.87898 10.89540 2363 ft 110 kts 90°
2026-04-25 14:09 43.87910 10.89906 2362 ft 115 kts 91°
2026-04-25 14:10 43.87923 10.91879 2300 ft 127 kts 92°
2026-04-25 14:10 43.87932 10.93077 2245 ft 123 kts 93°
2026-04-25 14:10 43.87938 10.94247 2187 ft 121 kts 94°
2026-04-25 14:10 43.87945 10.95423 2112 ft 124 kts 94°
2026-04-25 14:11 43.87951 10.96607 2035 ft 122 kts 93°
2026-04-25 14:11 43.87957 10.97783 1955 ft 122 kts 94°
2026-04-25 14:11 43.87962 10.98954 1885 ft 122 kts 92°
2026-04-25 14:11 43.87970 11.00131 1807 ft 122 kts 95°
2026-04-25 14:12 43.87976 11.01302 1730 ft 121 kts 93°
2026-04-25 14:12 43.87980 11.02433 1654 ft 118 kts 95°
2026-04-25 14:12 43.87987 11.03562 1571 ft 116 kts 94°
2026-04-25 14:12 43.87979 11.04691 1488 ft 118 kts 103°
2026-04-25 14:13 43.87625 11.05663 1416 ft 110 kts 135°
2026-04-25 14:13 43.87169 11.06516 1342 ft 110 kts 134°
2026-04-25 14:13 43.86715 11.07341 1272 ft 108 kts 133°
2026-04-25 14:13 43.86268 11.08166 1196 ft 106 kts 131°
2026-04-25 14:14 43.85823 11.08977 1118 ft 106 kts 135°
2026-04-25 14:14 43.85376 11.09791 1030 ft 106 kts 136°
2026-04-25 14:14 43.84948 11.10604 978 ft 102 kts 130°
2026-04-25 14:14 43.84521 11.11362 955 ft 97 kts 136°
2026-04-25 14:15 43.84121 11.12090 956 ft 93 kts 136°
2026-04-25 14:15 43.83993 11.12333 953 ft 93 kts 135°
2026-04-25 14:15 43.83351 11.13528 963 ft 94 kts 130°
2026-04-25 14:15 43.82966 11.14219 950 ft 89 kts 131°
2026-04-25 14:16 43.82613 11.14865 958 ft 80 kts 133°
2026-04-25 14:16 43.82292 11.15463 955 ft 75 kts 131°
2026-04-25 14:16 43.81994 11.16025 951 ft 72 kts 122°
2026-04-25 14:16 43.81723 11.16708 815 ft 89 kts 129°
2026-04-25 14:17 43.81305 11.17343 714 ft 92 kts 141°
2026-04-25 14:17 43.80818 11.17906 555 ft 93 kts 135°
2026-04-25 14:17 43.80443 11.18601 456 ft 86 kts 143°
2026-04-25 14:17 43.80300 11.19380 492 ft 91 kts 55°
2026-04-25 14:18 43.80747 11.20120 227 ft 105 kts 43°
2026-04-25 14:18 43.81091 11.20647 132 ft 0 kts 46°